Regional Weather Roundup
Issued by NWS

Home | Current Version | Previous Version | Text Only | Print | Product List | Glossary On
Versions: 1 2 3 4 5 6 7 8 9 10 11 12 13 14 15 16 17 18 19 20 21 22 23 24 25 26 27 28 29 30 31 32 33 34 35 36 37 38 39 40 41 42 43 44 45 46 47 48 49 50
230
ASUS44 KLIX 181001
RWRLA
LOUISIANA WEATHER ROUNDUP
NATIONAL WEATHER SERVICE NEW ORLEANS LA
500 AM CDT THU SEP 18 2014

NOTE: "FAIR" INDICATES FEW OR NO CLOUDS BELOW 12,000 FEET WITH NO
      SIGNIFICANT WEATHER AND/OR OBSTRUCTIONS TO VISIBILITY.
      SKY/WX - SKY CONDITION AND SIGNIFICANT WEATHER.
      TMP - AIR TEMPERATURE.    DP   - DEWPOINT TEMPERATURE.
      RH  - RELATIVE HUMIDITY.  PRES - PRESSURE.
      HX  - HEAT INDEX.         WCI  - WIND CHILL INDEX.

*  THESE STATIONS ARE NOT NWS OR FAA STATIONS AND ARE NOT UNDER
   NWS QUALITY CONTROL.

LAZ040-048-061>063-065-066-069-181100-
SOUTHEAST LOUISIANA

CITY           SKY/WX    TMP DP  RH WIND       PRES   REMARKS
N.O. AUDUBON     N/A     76  75  96 MISG        N/A
N.O. INTL ARPT PTCLDY    76  72  87 W3        29.89S
N.O. LAKEFRONT PTCLDY    80  74  81 N3        29.89S
N.O. DOWNTOWN* FAIR      79  70  73 CALM      29.90S
SLIDELL        PTCLDY    72  69  90 CALM      29.90R
BATON ROUGE    MOCLDY    73  72  96 CALM      29.90R
BOOTHVILLE     PTCLDY    79  76  90 CALM      29.89S
BELLE CHASSE   PTCLDY    72  69  90 CALM      29.89S
BOGALUSA*      FOG       73  69  90 CALM      29.92R VSB 1/2
GALLIANO*      NOT AVBL
NEW ROADS*     FOG       71  71  98 CALM      29.90S VSB 1/4
GONZALES*      FAIR      72  72 100 CALM      29.89S
HAMMOND*       NOT AVBL
HOUMA*         CLOUDY   N/A N/A N/A CALM      29.89S FOG
PORT FOURCHON* SUNNY     79  73  83 N3        29.92S

$$

LAZ041-044-053-054-181100-
SOUTHWEST LOUISIANA

CITY           SKY/WX    TMP DP  RH WIND       PRES   REMARKS
LAKE CHARLES   CLOUDY    75  74  96 CALM      29.89R
LAFAYETTE      CLOUDY    76  75  97 CALM      29.90R
PATTERSON      CLOUDY    73  73 100 CALM      29.92S
SALT POINT       N/A     78  76  93 CALM      29.89S
NEW IBERIA     CLOUDY    75  74  96 CALM      29.91R
CHENAULT AIRPK NOT AVBL

$$

LAZ027-028-181100-
CENTRAL LOUISIANA

CITY           SKY/WX    TMP DP  RH WIND       PRES   REMARKS
FORT POLK      CLOUDY    73  72  96 CALM      29.89S
ALEXANDRIA INT CLOUDY    72  72 100 CALM      29.88S
ALEXANDRIA     CLOUDY    73  70  90 CALM      29.90R

$$

LAZ001-002-181100-
NORTHWEST LOUISIANA

CITY           SKY/WX    TMP DP  RH WIND       PRES   REMARKS
SHREVEPORT     CLOUDY    74  71  91 S3        29.88S
BARKSDALE AFB  CLOUDY    71  71  97 SE5       29.88F
DTN SHREVEPORT CLOUDY    74  71  91 CALM      29.88F

$$

LAZ014-016-181100-
NORTHEAST LOUISIANA

CITY           SKY/WX    TMP DP  RH WIND       PRES   REMARKS
MONROE         CLOUDY    73  71  93 CALM      29.90S
TALLULAH       CLOUDY    71  69  93 CALM      29.90R

$$




USA.gov is the U.S. government's official web portal to all federal, state and local government web resources and services.